DW2485 Weather Reports


time (UTC)temp
C
wind
direction
speed
KPH
gust
KPH
rain 1hr
cm
rain 24hr
cm
rain mn
cm
humidity
%
barometer
mb
20260902162006 31 219 8.0 14.5 0.00 0.00 0.00 66 1015.3
20260902161005 30 202 9.7 16.1 0.00 0.00 0.00 69 1015.3
20260902155504 30 174 11.3 14.5 0.00 0.00 0.00 70 1015.2
20260902154504 30 213 4.8 11.3 0.00 0.00 0.00 71 1015.1
20260902154005 30 218 4.8 11.3 0.00 0.00 0.00 71 1015.0
20260902153004 30 243 6.4 11.3 0.00 0.00 0.00 72 1015.0
20260902152505 29 231 6.4 8.0 0.00 0.00 0.00 71 1015.0
20260902152005 29 224 3.2 4.8 0.00 0.00 0.00 73 1015.0
20260902150004 28 227 3.2 4.8 0.00 0.00 0.00 75 1015.0
20260902145504 27 187 3.2 8.0 0.00 0.00 0.00 76 1015.0
20260902144504 27 190 8.0 12.9 0.00 0.00 0.00 77 1015.0
20260902143504 27 181 8.0 11.3 0.00 0.00 0.00 77 1014.9
20260902143004 27 182 6.4 9.7 0.00 0.00 0.00 77 1014.9
20260902142504 27 181 4.8 9.7 0.00 0.00 0.00 78 1015.0
20260902142005 27 186 8.0 9.7 0.00 0.00 0.00 76 1015.0
20260902141504 27 184 4.8 9.7 0.00 0.00 0.00 77 1015.0
20260902141004 27 181 8.0 12.9 0.00 0.00 0.00 76 1015.1
20260902140504 26 194 4.8 8.0 0.00 0.00 0.00 78 1015.1
20260902140005 26 189 8.0 11.3 0.00 0.00 0.00 77 1015.1
20260902135504 26 168 8.0 12.9 0.00 0.00 0.00 77 1015.1
20260902135004 26 182 8.0 11.3 0.00 0.00 0.00 77 1015.1
20260902134504 26 189 4.8 8.0 0.00 0.00 0.00 79 1015.1
20260902134005 26 152 4.8 8.0 0.00 0.00 0.00 79 1015.1
20260902133004 25 154 4.8 8.0 0.00 0.00 0.00 81 1015.3
20260902132504 25 158 3.2 4.8 0.00 0.00 0.00 82 1015.5
20260902131504 24 194 1.6 4.8 0.00 0.00 0.00 84 1015.5
20260902131004 24 185 3.2 4.8 0.00 0.00 0.00 83 1015.5
20260902125005 24 152 4.8 4.8 0.00 0.00 0.00 83 1015.8
20260902124505 23 148 1.6 3.2 0.00 0.00 0.00 84 1015.9
20260902122004 22 218 3.2 4.8 0.00 0.00 0.00 89 1015.9
20260902121505 21 351 0.0 3.2 0.00 0.00 0.00 90 1015.7
20260902121005 21 351 0.0 3.2 0.00 0.00 0.00 89 1015.7
20260902115504 22 192 0.0 3.2 0.00 0.00 0.00 87 1015.9
20260902115004 22 192 1.6 4.8 0.00 0.00 0.00 87 1015.8
20260902114004 22 270 3.2 8.0 0.00 0.00 0.00 87 1016.0
20260902111004 21 150 4.8 4.8 0.00 0.00 0.00 88 1014.8
20260902110504 21 146 3.2 4.8 0.00 0.00 0.00 88 1014.8
20260902110007 21 163 4.8 4.8 0.00 0.00 0.00 88 1014.8
20260902105004 21 163 3.2 3.2 0.00 0.00 0.00 87 1014.8
20260902104004 21 163 3.2 4.8 0.00 0.00 0.00 87 1014.9
20260902103505 21 163 3.2 3.2 0.00 0.00 0.00 87 1014.9
20260902102504 21 163 3.2 4.8 0.00 0.00 0.00 87 1014.9
20260902101005 21 157 3.2 3.2 0.00 0.00 0.00 87 1014.9
20260902100504 21 154 1.6 4.8 0.00 0.00 0.00 87 1014.9
20260902100004 21 147 4.8 4.8 0.00 0.00 0.00 87 1014.8
20260902095504 21 151 3.2 4.8 0.00 0.00 0.00 87 1014.8
20260902092504 21 152 3.2 4.8 0.00 0.00 0.00 86 1015.1
20260902090504 22 162 3.2 3.2 0.00 0.00 0.00 85 1015.4
20260902085004 22 182 3.2 4.8 0.00 0.00 0.00 85 1015.4
20260902084504 22 184 1.6 3.2 0.00 0.00 0.00 85 1015.3
20260902083504 22 172 3.2 4.8 0.00 0.00 0.00 86 1015.1
20260902082504 22 181 1.6 3.2 0.00 0.00 0.00 85 1015.1
20260902082004 22 181 1.6 3.2 0.00 0.00 0.00 85 1015.1
20260902081504 22 181 1.6 3.2 0.00 0.00 0.00 85 1015.0
20260902081004 22 181 1.6 3.2 0.00 0.00 0.00 85 1014.9
20260902080004 22 181 3.2 4.8 0.00 0.00 0.00 85 1014.9
20260902075504 22 181 3.2 4.8 0.00 0.00 0.00 85 1014.8
20260902075004 22 208 1.6 4.8 0.00 0.00 0.00 84 1014.8
20260902074504 22 209 1.6 3.2 0.00 0.00 0.00 84 1014.9
20260902074004 22 198 1.6 3.2 0.00 0.00 0.00 85 1014.8
20260902073004 22 153 1.6 1.6 0.00 0.00 0.00 86 1014.7
20260902072504 22 153 1.6 3.2 0.00 0.00 0.00 86 1014.6
20260902072004 22 153 3.2 4.8 0.00 0.00 0.00 86 1014.4
20260902070504 22 169 1.6 4.8 0.00 0.00 0.00 85 1014.7
20260902070006 22 167 3.2 4.8 0.00 0.00 0.00 85 1014.7
20260902064504 22 190 1.6 4.8 0.00 0.00 0.00 85 1014.6
20260902062504 23 186 3.2 4.8 0.00 0.00 0.00 84 1014.8
20260902061004 23 188 3.2 8.0 0.00 0.00 0.00 84 1014.7
20260902060004 23 208 3.2 8.0 0.00 0.00 0.00 83 1014.8
20260902055503 23 217 4.8 8.0 0.00 0.00 0.00 83 1014.8
20260902054504 23 212 4.8 8.0 0.00 0.00 0.00 84 1014.7
20260902054004 23 186 6.4 12.9 0.00 0.00 0.00 84 1014.7
20260902053503 23 175 8.0 12.9 0.00 0.00 0.00 85 1014.7
20260902053003 23 182 8.0 11.3 0.00 0.00 0.00 85 1014.8
20260902052504 23 169 8.0 12.9 0.00 0.00 0.00 86 1014.8
20260902051503 23 166 4.8 9.7 0.00 0.00 0.00 87 1014.9
20260902051004 23 164 4.8 8.0 0.00 0.00 0.00 88 1014.9
20260902050504 23 163 3.2 4.8 0.00 0.00 0.00 87 1014.9
20260902050005 23 166 3.2 4.8 0.00 0.00 0.00 87 1015.0
20260902045503 23 179 3.2 4.8 0.00 0.00 0.00 87 1015.1
20260902045004 23 175 3.2 8.0 0.00 0.00 0.00 87 1015.0
20260902044504 23 184 3.2 4.8 0.00 0.00 0.00 88 1015.1
20260902043503 23 159 3.2 4.8 0.00 0.00 0.00 89 1015.0
20260902043005 23 177 1.6 4.8 0.00 0.00 0.00 88 1014.9
20260902042505 23 175 1.6 3.2 0.00 0.00 0.00 88 1014.8
20260902042005 23 175 1.6 3.2 0.00 0.00 0.00 88 1014.9
20260902041506 23 175 1.6 3.2 0.00 0.00 0.00 89 1014.9
20260902040506 23 166 1.6 4.8 0.00 0.00 0.00 88 1015.0
20260902035505 24 187 1.6 3.2 0.00 0.00 0.00 87 1015.0
20260902034006 24 187 1.6 3.2 0.00 0.00 0.00 86 1015.0
20260902033506 24 187 3.2 3.2 0.00 0.00 0.00 86 1015.0
20260902033006 25 187 3.2 4.8 0.00 0.00 0.00 86 1015.0
20260902032505 25 183 3.2 4.8 0.00 0.00 0.00 86 1014.9
20260902032005 25 187 3.2 4.8 0.00 0.00 0.00 86 1014.9
20260902031505 25 194 1.6 3.2 0.00 0.00 0.00 86 1014.8
20260902031006 25 165 1.6 3.2 0.00 0.00 0.00 86 1014.8
20260902030505 25 165 1.6 3.2 0.00 0.00 0.00 86 1014.7
20260902030005 25 164 3.2 4.8 0.00 0.00 0.00 87 1014.6
20260902025506 25 165 3.2 4.8 0.00 0.00 0.00 87 1014.6
20260902025006 25 170 1.6 4.8 0.00 0.00 0.00 87 1014.6
20260902024505 25 154 3.2 4.8 0.00 0.00 0.00 86 1014.6
20260902022006 25 182 3.2 8.0 0.00 0.00 0.00 84 1014.5
20260902020505 26 178 4.8 8.0 0.00 0.00 0.00 83 1014.5
20260902020006 26 178 4.8 8.0 0.00 0.00 0.00 83 1014.4
20260902015006 26 164 4.8 8.0 0.00 0.00 0.00 83 1014.4
20260902014505 26 161 4.8 8.0 0.00 0.00 0.00 83 1014.3
20260902012006 27 155 4.8 9.7 0.00 0.00 0.00 81 1014.2
20260902011005 27 142 4.8 4.8 0.00 0.00 0.00 81 1014.0
20260902005505 27 158 3.2 4.8 0.00 0.00 0.00 78 1014.0
20260902005006 28 158 3.2 8.0 0.00 0.00 0.00 78 1014.0
20260902004006 28 165 3.2 4.8 0.00 0.00 0.00 76 1014.0
20260902002005 29 183 3.2 4.8 0.00 0.00 0.00 72 1013.9
20260902000005 30 178 4.8 11.3 0.00 0.00 0.00 68 1014.1
20260901235505 30 184 4.8 11.3 0.00 0.00 0.00 68 1014.1
20260901235005 31 192 6.4 12.9 0.00 0.00 0.00 68 1014.2
20260901234505 31 195 9.7 16.1 0.00 0.00 0.00 68 1014.0
20260901234005 31 185 6.4 14.5 0.00 0.00 0.00 68 1014.0
20260901232005 32 182 8.0 12.9 0.00 0.00 0.00 66 1014.2
20260901230005 32 188 4.8 11.3 0.00 0.00 0.00 64 1014.0
20260901225505 32 189 8.0 16.1 0.00 0.00 0.00 63 1014.0
20260901225005 32 190 8.0 12.9 0.00 0.00 0.00 63 1014.0
20260901224505 32 202 8.0 9.7 0.00 0.00 0.00 63 1014.2
20260901222505 33 198 9.7 16.1 0.00 0.00 0.00 61 1014.2
20260901222005 33 194 8.0 12.9 0.00 0.00 0.00 60 1014.1
20260901221505 33 191 9.7 16.1 0.00 0.00 0.00 60 1014.3
20260901220505 33 190 4.8 12.9 0.00 0.00 0.00 62 1014.3
20260901215005 33 202 9.7 14.5 0.00 0.00 0.00 60 1014.2
20260901214505 33 182 11.3 16.1 0.00 0.00 0.00 60 1014.2
20260901213005 33 220 4.8 11.3 0.00 0.00 0.00 61 1014.2
20260901212504 33 197 4.8 9.7 0.00 0.00 0.00 60 1014.3
20260901212005 33 213 6.4 12.9 0.00 0.00 0.00 62 1014.3
20260901210505 34 174 4.8 11.3 0.00 0.00 0.00 60 1014.5
20260901210005 34 213 8.0 16.1 0.00 0.00 0.00 60 1014.4
20260901205505 34 222 6.4 12.9 0.00 0.00 0.00 62 1014.5
20260901205005 34 198 6.4 11.3 0.00 0.00 0.00 61 1014.6
20260901204505 34 184 4.8 11.3 0.00 0.00 0.00 62 1014.6
20260901202005 33 211 9.7 14.5 0.00 0.00 0.00 60 1014.8
20260901201505 33 211 9.7 14.5 0.00 0.00 0.00 62 1014.9
20260901201005 33 187 8.0 16.1 0.00 0.00 0.00 63 1014.9
20260901200005 33 208 6.4 9.7 0.00 0.00 0.00 65 1014.9
20260901195005 33 174 6.4 12.9 0.00 0.00 0.00 62 1014.9
20260901193505 33 174 9.7 16.1 0.00 0.00 0.00 61 1014.9
20260901193005 33 205 8.0 12.9 0.00 0.00 0.00 62 1015.0
20260901191504 33 186 4.8 16.1 0.00 0.00 0.00 63 1015.1
20260901190505 34 201 6.4 14.5 0.00 0.00 0.00 66 1015.0
20260901185505 33 196 8.0 16.1 0.00 0.00 0.00 67 1015.2
20260901185006 33 208 6.4 14.5 0.00 0.00 0.00 64 1015.3
20260901184005 33 186 8.0 14.5 0.00 0.00 0.00 66 1015.3
20260901183505 33 191 8.0 14.5 0.00 0.00 0.00 64 1015.3
20260901182505 33 212 8.0 11.3 0.00 0.00 0.00 67 1015.4
20260901182005 33 234 4.8 11.3 0.00 0.00 0.00 67 1015.4
20260901181005 33 224 8.0 11.3 0.00 0.00 0.00 71 1015.4
20260901180505 33 206 6.4 14.5 0.00 0.00 0.00 69 1015.4
20260901175005 32 228 8.0 11.3 0.00 0.00 0.00 67 1015.6
20260901174504 32 209 9.7 12.9 0.00 0.00 0.00 71 1015.7
20260901174006 32 183 8.0 16.1 0.00 0.00 0.00 69 1015.8
20260901173504 32 192 9.7 14.5 0.00 0.00 0.00 68 1015.9
20260901173005 32 183 9.7 14.5 0.00 0.00 0.00 69 1016.0
20260901172504 32 172 8.0 12.9 0.00 0.00 0.00 69 1015.9
20260901172005 32 185 6.4 11.3 0.00 0.00 0.00 70 1015.9
20260901171005 32 214 8.0 12.9 0.00 0.00 0.00 68 1015.9
20260901170004 32 235 4.8 11.3 0.00 0.00 0.00 71 1015.9
20260901165005 32 187 4.8 14.5 0.00 0.00 0.00 72 1015.9
20260901163506 32 220 6.4 12.9 0.00 0.00 0.00 71 1015.8
20260901163005 31 173 8.0 12.9 0.00 0.00 0.00 74 1015.8